Regional Weather Roundup
Issued by NWS

Home | Current Version | Previous Version | Text Only | Print | Product List | Glossary On
Versions: 1 2 3 4 5 6 7 8 9 10 11 12 13 14 15 16 17 18 19 20 21 22 23 24 25 26 27 28 29 30 31 32 33 34 35 36 37 38 39 40 41 42 43 44 45 46 47 48 49 50
000
ASUS44 KOUN 312200
RWROK

WEATHER ROUNDUP FOR OKLAHOMA
NATIONAL WEATHER SERVICE NORMAN OK
500 PM CDT MON AUG 31 2015

NOTE: "FAIR" INDICATES FEW OR NO CLOUDS BELOW 12,000 FEET WITH NO
      SIGNIFICANT WEATHER AND/OR OBSTRUCTIONS TO VISIBILITY.

OKZ001>007-009>012-014-015-017-312300-
NORTHWEST OKLAHOMA AND THE PANHANDLE

CITY           SKY/WX    TMP DP  RH WIND       PRES   REMARKS
GAGE           SUNNY     94  54  25 S22G30    29.93S HX  92
GUYMON         SUNNY     94  51  23 S22G30    29.90F HX  91
$$

OKZ016-021>023-033>039-044-045-312300-
SOUTHWEST OKLAHOMA

CITY           SKY/WX    TMP DP  RH WIND       PRES   REMARKS
LAWTON/REGL    SUNNY     95  58  28 S12G22    29.92F HX  94
LAWTON/FT SILL MOSUNNY   96  61  31 S15       29.91F HX  96
FREDERICK      MOSUNNY   97  58  27 SE14G23   29.90F HX  96
CLINTON        SUNNY     95  52  23 S18G29    29.95F HX  92
HOBART         SUNNY     97  53  22 S20       29.93F HX  94
ALTUS AFB      SUNNY     96  53  23 SE14      29.91F HX  94
$$

OKZ018>020-024>031-312300-
CENTRAL OKLAHOMA

CITY           SKY/WX    TMP DP  RH WIND       PRES   REMARKS
OKLAHOMA CITY  MOSUNNY   93  60  33 S16G24    29.95F HX  93
OKC/WILEY POST SUNNY     94  60  32 S15G23    29.95S HX  94
OKC/TINKER AFB SUNNY     93  61  34 S16G23    29.95F HX  93
STILLWATER     SUNNY     93  63  36 S13G22    29.93S HX  94
GUTHRIE        SUNNY     94  60  32 S13       29.93F HX  94
$$

OKZ008-013-054>072-312300-
NORTHEAST OKLAHOMA

CITY           SKY/WX    TMP DP  RH WIND       PRES   REMARKS
TULSA          MOSUNNY   92  69  47 S12       29.94S HX  97
TULSA/JONES    SUNNY     92  66  42 S9        29.95S HX  94
PONCA CITY     SUNNY     93  64  38 S15G23    29.90S HX  94
BARTLESVILLE   SUNNY     90  69  50 S10G18    29.95F HX  94
MUSKOGEE       MOSUNNY   89  71  55 SE8       29.98F HX  95
$$

OKZ032-040>043-046>053-073>077-312300-
SOUTH CENTRAL/SOUTHEAST OKLAHOMA

CITY           SKY/WX    TMP DP  RH WIND       PRES   REMARKS
MCALESTER      SUNNY     92  66  42 S7        29.98F HX  94
$$




USA.gov is the U.S. government's official web portal to all federal, state and local government web resources and services.